Weather History for Cork, Ireland

Change the Weather History Date:

Thursday, February 7, 2013

  Actual Average Record
Temperature  
Mean Temperature 40 °F -  
Max Temperature 47 °F 47 °F 55 °F (2002)
Min Temperature 34 °F 37 °F 30 °F (2009)
Degree Days  
Heating Degree Days 24    
Moisture  
Dew Point 36 °F    
Average Humidity 85    
Maximum Humidity 100    
Minimum Humidity 66    
Precipitation  
Precipitation 0.08 in 0.15 in - ()
Sea Level Pressure  
Sea Level Pressure 30.22 in    
Wind  
Wind Speed 11 mph ()    
Max Wind Speed 29 mph    
Max Gust Speed 45 mph    
Visibility 6.6 miles    
Events Rain    
Averages and records for this station are not official NWS values.
T = Trace of Precipitation, MM = Missing Value Source: Averaged Metar Reports

Daily Weather History Graph

Daily Weather History Graph

Search for Another Location

Airport:

Trip Planner

Search our weather history database for the weather conditions in past years. The results will help you decide how hot, cold, wet, or windy it might be!

Date:

Astronomy

Feb. 07, 2013 Rise Set
Actual Time 8:03 AM GMT 5:33 PM GMT
Civil Twilight 7:27 AM GMT 6:09 PM GMT
Nautical Twilight 6:47 AM GMT 6:49 PM GMT
Astronomical Twilight 6:08 AM GMT 7:28 PM GMT
Moon 5:43 AM GMT (2/7) 2:31 PM GMT (2/7)
Length of Visible Light 10h 41m
Length of Day
9h 30m
Waning Crescent, 10% of the Moon is Illuminated
Feb 7
Waning Crescent
Feb 10
New
Feb 17
First Quarter
Feb 25
Full
Mar 4
Last Quarter

Hourly Weather History & Observations

Time (GMT) Temp. Windchill Dew Point Humidity Pressure Visibility Wind Dir Wind Speed Gust Speed Precip Events Conditions
12:00 AM 35 °F - 33 °F 87% 30.37 in 12 mi WNW 8.9 mph - -   Scattered Clouds
12:00 AM 35.6 °F 28.6 °F 32.0 °F 87% 30.33 in 6.2 mi WNW 9.2 mph - N/A   Partly Cloudy
12:30 AM 35.6 °F 30.7 °F 32.0 °F 87% 30.33 in 6.2 mi NW 5.8 mph - N/A   Partly Cloudy
1:00 AM 35.6 °F 28.6 °F 32.0 °F 87% 30.33 in 6.2 mi WNW 9.2 mph - N/A   Partly Cloudy
1:30 AM 35.6 °F 29.2 °F 32.0 °F 87% 30.33 in 6.2 mi West 8.1 mph - N/A   Partly Cloudy
2:00 AM 33.8 °F 26.4 °F 32.0 °F 93% 30.33 in 6.2 mi West 9.2 mph - N/A   Partly Cloudy
2:30 AM 33.8 °F 28.6 °F 32.0 °F 93% 30.33 in 6.2 mi WNW 5.8 mph - N/A   Partly Cloudy
3:00 AM 35.6 °F 29.9 °F 33.8 °F 93% 30.30 in 6.2 mi WNW 6.9 mph - N/A   Partly Cloudy
3:30 AM 35.6 °F 29.2 °F 33.8 °F 93% 30.30 in 6.2 mi WNW 8.1 mph - N/A   Mostly Cloudy
4:00 AM 35.6 °F 29.2 °F 33.8 °F 93% 30.30 in 6.2 mi WNW 8.1 mph - N/A   Mostly Cloudy
4:30 AM 35.6 °F 29.2 °F 33.8 °F 93% 30.27 in 6.2 mi WNW 8.1 mph - N/A   Mostly Cloudy
5:00 AM 35.6 °F 29.2 °F 33.8 °F 93% 30.27 in 6.2 mi WNW 8.1 mph - N/A   Mostly Cloudy
5:30 AM 37.4 °F 31.4 °F 33.8 °F 87% 30.27 in 6.2 mi WNW 8.1 mph - N/A   Mostly Cloudy
6:00 AM 37 °F - 34 °F 83% 30.30 in 12 mi West 6.7 mph - -   Scattered Clouds
6:00 AM 37.4 °F 32.8 °F 33.8 °F 87% 30.27 in 6.2 mi West 5.8 mph - N/A   Mostly Cloudy
6:30 AM 37.4 °F 33.8 °F 33.8 °F 87% 30.27 in 6.2 mi WSW 4.6 mph - N/A   Mostly Cloudy
7:00 AM 37.4 °F 33.8 °F 33.8 °F 87% 30.24 in 6.2 mi WSW 4.6 mph - N/A   Mostly Cloudy
7:30 AM 37.4 °F 31.4 °F 33.8 °F 87% 30.24 in 6.2 mi WSW 8.1 mph - N/A   Mostly Cloudy
8:00 AM 37.4 °F 31.4 °F 33.8 °F 87% 30.24 in 6.2 mi WSW 8.1 mph - N/A   Mostly Cloudy
8:30 AM 37.4 °F 31.4 °F 33.8 °F 87% 30.21 in 6.2 mi SW 8.1 mph - N/A   Mostly Cloudy
9:00 AM 37.4 °F 30.8 °F 35.6 °F 93% 30.21 in 6.2 mi SW 9.2 mph - N/A   Mostly Cloudy
9:30 AM 39.2 °F 34.2 °F 37.4 °F 93% 30.21 in 6.2 mi SW 6.9 mph - N/A Rain Light Rain
10:00 AM 39.2 °F 33.6 °F 39.2 °F 100% 30.18 in 6.2 mi SW 8.1 mph - N/A Rain Light Rain
10:30 AM 39.2 °F 33.6 °F 39.2 °F 100% 30.18 in 6.2 mi SW 8.1 mph - N/A Rain Light Rain
11:00 AM 39.2 °F 32.5 °F 39.2 °F 100% 30.15 in 6.2 mi SW 10.4 mph - N/A Rain Light Rain
11:30 AM 41.0 °F 33.1 °F 41.0 °F 100% 30.15 in 6.2 mi SW 15.0 mph - N/A   Mostly Cloudy
12:00 PM 45 °F - 43 °F 91% 30.17 in 25 mi West 15.7 mph - - Rain Light Rain
12:00 PM 44.6 °F 37.8 °F 42.8 °F 93% 30.15 in 6.2 mi West 15.0 mph - N/A   Mostly Cloudy
12:30 PM 46.4 °F 39.8 °F 42.8 °F 87% 30.12 in 6.2 mi WNW 16.1 mph - N/A   Mostly Cloudy
1:00 PM 46.4 °F 37.9 °F 42.8 °F 87% 30.12 in 6.2 mi WNW 25.3 mph 36.8 mph N/A   Scattered Clouds
1:30 PM 46.4 °F 38.3 °F 39.2 °F 76% 30.12 in 6.2 mi WNW 23.0 mph 36.8 mph N/A   Mostly Cloudy
2:00 PM 48.2 °F - 39.2 °F 71% 30.12 in 6.2 mi WNW 27.6 mph 44.9 mph N/A   Mostly Cloudy
2:30 PM 46.4 °F 37.7 °F 37.4 °F 71% 30.12 in 6.2 mi NW 26.5 mph 38.0 mph N/A   Partly Cloudy
3:00 PM 46.4 °F 37.4 °F 35.6 °F 66% 30.12 in 6.2 mi NW 28.8 mph 40.3 mph N/A   Partly Cloudy
3:30 PM 46.4 °F 37.5 °F 35.6 °F 66% 30.12 in 6.2 mi NW 27.6 mph 40.3 mph N/A   Scattered Clouds
4:00 PM 46.4 °F 38.3 °F 37.4 °F 71% 30.12 in 6.2 mi NW 23.0 mph 35.7 mph N/A   Partly Cloudy
4:30 PM 46.4 °F 37.5 °F 35.6 °F 66% 30.12 in 6.2 mi NW 27.6 mph 39.1 mph N/A   Partly Cloudy
5:00 PM 46.4 °F 37.7 °F 35.6 °F 66% 30.12 in 6.2 mi NW 26.5 mph 38.0 mph N/A   Partly Cloudy
5:30 PM 44.6 °F 35.3 °F 35.6 °F 71% 30.15 in 6.2 mi NW 26.5 mph - N/A   Scattered Clouds
6:00 PM 44 °F - 36 °F 66% 30.19 in 16 mi NW 22.4 mph - -   Partly Cloudy
6:00 PM 44.6 °F 36.1 °F 35.6 °F 71% 30.15 in 6.2 mi NW 21.9 mph 35.7 mph N/A   Partly Cloudy
6:30 PM 42.8 °F 33.5 °F 37.4 °F 81% 30.18 in 6.2 mi NW 23.0 mph 38.0 mph N/A   Partly Cloudy
7:00 PM 42.8 °F 34.8 °F 37.4 °F 81% 30.18 in 6.2 mi NW 17.3 mph - N/A   Partly Cloudy
7:30 PM 42.8 °F 34.0 °F 37.4 °F 81% 30.21 in 6.2 mi NW 20.7 mph - N/A   Partly Cloudy
8:00 PM 42.8 °F 35.1 °F 37.4 °F 81% 30.21 in 6.2 mi NW 16.1 mph - N/A   Mostly Cloudy
8:30 PM 42.8 °F 34.5 °F 39.2 °F 87% 30.21 in 6.2 mi NW 18.4 mph 29.9 mph N/A   Mostly Cloudy
9:00 PM 42.8 °F 35.4 °F 39.2 °F 87% 30.24 in 6.2 mi NW 15.0 mph - N/A   Scattered Clouds
9:30 PM 42.8 °F 35.8 °F 37.4 °F 81% 30.24 in 6.2 mi NW 13.8 mph - N/A   Scattered Clouds
10:00 PM 42.8 °F 35.8 °F 39.2 °F 87% 30.24 in 6.2 mi NW 13.8 mph - N/A   Scattered Clouds
10:30 PM 42.8 °F 34.5 °F 39.2 °F 87% 30.24 in 6.2 mi NW 18.4 mph - N/A   Scattered Clouds
11:00 PM 42.8 °F 34.8 °F 37.4 °F 81% 30.24 in 6.2 mi NW 17.3 mph - N/A   Scattered Clouds
11:30 PM 42.8 °F 34.8 °F 37.4 °F 81% 30.24 in 6.2 mi NW 17.3 mph - N/A   Scattered Clouds